Location: Northam
(31.6525°S, 116.6655°E)
Time: 22:48:48
(UTC+08:00)

Envisat - Pass Details

Date: 19 May 2021
Orbit: 764 x 766 km, 98.1° (Epoch: 13 June)

Event Time Altitude Azimuth Distance (km) Brightness Sun altitude
Rises 17:49:07 0° 172° (S) 3,263 6.0 -6.1°
Reaches altitude 10° 17:51:27 10° 174° (S) 2,330 5.3 -6.6°
Maximum altitude 17:56:33 67° 256° (WSW) 836 3.5 -7.6°
Drops below altitude 10° 18:01:35 10° 337° (NNW) 2,301 6.1 -8.6°
Sets 18:03:53 0° 340° (NNW) 3,220 6.8 -9.1°
